STARLINK-34280, 64594

Orbit data source: Space-Track

STARLINK-34280, 64594 is a payload satellite owned by SpaceX/Seattle (US) in LEO that was launched on Wed, 25 Jun 2025 UTC via an FALCON 9 launch vehicle from the Air Force Eastern Test Range (AFETR). Payload-class satellites include a variety of spacecraft equipped with specific instruments for various scientific and technological missions. These include communications satellites like Starlink; space stations such as the ISS; scientific satellites like the Hubble; Earth observation satellites from companies like Planet Labs, Umbra, and HawkEye 360; GPS; miniature CubeSats for education and research; and military/defense satellites.

Loading next visibility...
Identifier
64594, 2025-137A
Orbit
LEO
Country
Flag of USUS
Related business
Manufacturer
SpaceX/Seattle
Mission
Operational Commercial Communications
Bus & Motor
STARLINK V2MO, Unknown motor
Mass
575 kg wet, ~530 kg dry
Launch date (UTC)
2025-06-25 (1 year ago)
Launch vehicle
FALCON 9
Launch site
Air Force Eastern Test Range (AFETR)
Object type
Payload
Rocket body
Debris
Shape & HBR
Box + 2 Pan, 17.7 m
Radar Cross Section
36.964 m², Large (>1 m²)

Expand to show TLE details & history
Last TLE update: 10 hours ago

TLE from 10 hours ago
0 STARLINK-34280
1 64594U 25137A   26171.41668980 -.00006648  00000-0 -18590-3 0  9997
2 64594  53.1590 217.9643 0000795  57.2430 336.2773 15.34384410  5893
Epoch: 2026-06-20T10:00Z
TLE epoch observation values (Epoch: 2026-06-20T10:00:01.998Z)
Latitude
26.3016°
Longitude
-179.0674°
Altitude
463.403 km
Speed
7.639 km/s
True Right ascension
15h 58m 17s
True Declination
26° 09' 34"
Sunlit
Object was in full shadow at epoch
Visualization orbit readout
Latitude
Unknown
Longitude
Unknown
Altitude
Unknown
Speed
Unknown
Apparent Right ascension
Unknown
Apparent Declination
Unknown
Sunlit
N/A
Visualization observer readout
Local Sidereal Time
07:18:18
Azimuth
Unknown
Elevation
Unknown
Doppler factor
Unknown
Orbital elements
Apogee altitude
463.55 km
Perigee altitude
462.463 km
Semi-major axis
6,841.144 km
Eccentricity
0.00008
Inclination
53.159°
RAAN
217.9643°
Arg. of periapsis
57.243°
True anomaly
336.27363°
Mean anomaly
336.2773°
Eccentric anomaly
336.27547°
Mean motion
3.83575 °/min
Orbital period
93.85 mins
BSTAR
-0.0001859
Loading maneuver chart data...
Computing Atmospheric mass density...
Loading historical data...
Loading historical data...
Loading historical data...
Loading historical data...
Loading historical data...
Loading historical data...
Loading historical data...

Documentation

Showing up to 5 results
|